LTBA

Istanbul/Atatürk Airport

Airport
ICAO code
LTBA
IATA Code
IST
Summary
ICAO Region
EUR
ICAO Territory
Location

Yeşilköy, Istanbul

Serving
Istanbul
Elevation
163 ft
Coordinates
40° 58' 29" N , 28° 48' 35" E
KCC
Metar
Observation
LTBA 261450Z 01010KT 9999 FEW035 10/03 Q1025
Station
Istanbul / Ataturk
Date/Time
2022-11-26 14:50:00
Wind direction
10°
Wind speed
10 kts
Lowest cloud amount
few clouds
Temperature
10°C
Dew point
3°C
Humidity
61%
QNH
1025 hPa
Weather condition
n/a

Airport serving city of Istanbul. Until April 2019, it was the main international airport serving Istanbul.

Climatology

Dry-summer subtropical ”Mediterranean" climate (Köppen climate classification Csa)

Runways

Designator Length Width Surface Rops
5/23 2600 60 ASP Yes/Yes
17L/35R 3000 45 CON Yes/Yes
17R/35L 3000 45 CON Yes/Yes

Airport map

Aerial View

SKYbrary Partners:

Safety knowledge contributed by: